When you browse on this site, cookies collect data to enhance your experience and personalize the content and advertising you see.
Visit our Privacy Policy to learn more. By continuing to use the site, you agree to this use of cookies and data.
EN

Hourly Weather Dhaka

Today, 6 August, Thursday

Time Temperature Precipitation Wind Pressure Humidity
00:00 +30°C° 0 mm 5 mps 748 mmHg 85%
01:00 +30°C° 2.2 mm 4 mps 748 mmHg 86%
02:00 +30°C° 2.2 mm 4 mps 748 mmHg 86%
03:00 +30°C° 2.2 mm 4 mps 748 mmHg 87%
04:00 +29°C° 2.6 mm 4 mps 748 mmHg 89%
05:00 +29°C° 2.6 mm 5 mps 749 mmHg 90%
06:00 +29°C° 0 mm 5 mps 749 mmHg 92%
07:00 +29°C° 1 mm 5 mps 750 mmHg 89%
08:00 +30°C° 1 mm 6 mps 750 mmHg 86%
09:00 +32°C° 1 mm 6 mps 750 mmHg 84%
10:00 +32°C° 1.2 mm 6 mps 750 mmHg 82%
11:00 +32°C° 1.2 mm 6 mps 750 mmHg 80%
12:00 +33°C° 1.2 mm 6 mps 750 mmHg 79%
13:00 +33°C° 0.6 mm 6 mps 750 mmHg 79%
14:00 +33°C° 0.6 mm 6 mps 749 mmHg 80%
15:00 +32°C° 0.6 mm 6 mps 749 mmHg 80%
16:00 +32°C° 0.1 mm 5 mps 749 mmHg 81%
17:00 +32°C° 0.1 mm 5 mps 749 mmHg 81%
18:00 +32°C° 0.1 mm 4 mps 749 mmHg 82%
19:00 +32°C° 0 mm 4 mps 749 mmHg 83%
20:00 +30°C° 0 mm 3 mps 750 mmHg 85%
21:00 +30°C° 0 mm 3 mps 751 mmHg 86%
22:00 +30°C° 0.4 mm 3 mps 751 mmHg 87%
23:00 +30°C° 0.4 mm 3 mps 751 mmHg 88%

Tomorrow, 7 August, Friday

Time Temperature Precipitation Wind Pressure Humidity
00:00 +29°C° 0.4 mm 2 mps 751 mmHg 88%
01:00 +29°C° 1.5 mm 2 mps 750 mmHg 89%
02:00 +29°C° 1.5 mm 2 mps 750 mmHg 89%
03:00 +29°C° 1.5 mm 2 mps 750 mmHg 89%
04:00 +29°C° 3.9 mm 2 mps 750 mmHg 89%
05:00 +29°C° 3.9 mm 3 mps 750 mmHg 88%
06:00 +29°C° 3.9 mm 3 mps 750 mmHg 88%
07:00 +30°C° 0.8 mm 3 mps 750 mmHg 82%
08:00 +33°C° 0.8 mm 3 mps 751 mmHg 75%
09:00 +34°C° 0.8 mm 3 mps 751 mmHg 69%
10:00 +35°C° 0.1 mm 3 mps 751 mmHg 65%
11:00 +36°C° 0.1 mm 4 mps 750 mmHg 61%
12:00 +37°C° 0.1 mm 4 mps 750 mmHg 57%
13:00 +37°C° 0 mm 4 mps 749 mmHg 57%
14:00 +37°C° 0 mm 4 mps 749 mmHg 58%
15:00 +37°C° 0 mm 4 mps 748 mmHg 58%
16:00 +36°C° 0.2 mm 4 mps 748 mmHg 63%
17:00 +35°C° 0.2 mm 4 mps 748 mmHg 67%
18:00 +34°C° 0.2 mm 4 mps 748 mmHg 72%
19:00 +34°C° 0 mm 4 mps 748 mmHg 75%
20:00 +33°C° 0 mm 4 mps 749 mmHg 77%
21:00 +32°C° 0 mm 4 mps 749 mmHg 80%
22:00 +32°C° 0 mm 4 mps 749 mmHg 81%
23:00 +30°C° 0 mm 4 mps 750 mmHg 82%

Day after tomorrow, 8 August, Saturday

Time Temperature Precipitation Wind Pressure Humidity
00:00 +30°C° 0 mm 4 mps 750 mmHg 84%
01:00 +30°C° 0 mm 4 mps 749 mmHg 85%
02:00 +29°C° 0 mm 3 mps 749 mmHg 86%
03:00 +29°C° 0 mm 3 mps 749 mmHg 87%
04:00 +29°C° 0 mm 3 mps 749 mmHg 87%
05:00 +29°C° 0 mm 3 mps 749 mmHg 87%
06:00 +29°C° 0 mm 3 mps 748 mmHg 87%
07:00 +30°C° 0 mm 4 mps 749 mmHg 83%
08:00 +32°C° 0 mm 4 mps 749 mmHg 78%
09:00 +34°C° 0 mm 5 mps 750 mmHg 74%
10:00 +34°C° 0.1 mm 5 mps 749 mmHg 70%
11:00 +35°C° 0.1 mm 5 mps 749 mmHg 67%
12:00 +36°C° 0.1 mm 5 mps 748 mmHg 63%
13:00 +36°C° 0.1 mm 6 mps 747 mmHg 62%
14:00 +36°C° 0.1 mm 6 mps 747 mmHg 62%
15:00 +36°C° 0.1 mm 6 mps 746 mmHg 61%
16:00 +35°C° 0 mm 5 mps 746 mmHg 64%
17:00 +35°C° 0 mm 5 mps 746 mmHg 67%
18:00 +34°C° 0 mm 5 mps 746 mmHg 71%
19:00 +33°C° 0 mm 5 mps 747 mmHg 73%
20:00 +33°C° 0 mm 5 mps 748 mmHg 76%
21:00 +32°C° 0 mm 5 mps 749 mmHg 78%
22:00 +32°C° 0 mm 4 mps 749 mmHg 80%
23:00 +30°C° 0 mm 4 mps 749 mmHg 81%

9 August, Sunday

Time Temperature Precipitation Wind Pressure Humidity
00:00 +30°C° 0 mm 4 mps 749 mmHg 83%
01:00 +30°C° 0 mm 4 mps 748 mmHg 83%
02:00 +30°C° 0 mm 3 mps 748 mmHg 84%
03:00 +30°C° 0 mm 3 mps 748 mmHg 85%
04:00 +30°C° 0 mm 3 mps 748 mmHg 85%
05:00 +30°C° 0 mm 3 mps 748 mmHg 86%
06:00 +30°C° 0 mm 3 mps 748 mmHg 86%
07:00 +31°C° 0.6 mm 3 mps 748 mmHg 81%
08:00 +33°C° 0.6 mm 4 mps 749 mmHg 77%
09:00 +34°C° 0.6 mm 4 mps 749 mmHg 73%
10:00 +34°C° 1.5 mm 4 mps 749 mmHg 71%
11:00 +35°C° 1.5 mm 4 mps 748 mmHg 69%
12:00 +35°C° 1.5 mm 5 mps 748 mmHg 67%
13:00 +35°C° 1.7 mm 5 mps 747 mmHg 67%
14:00 +35°C° 1.7 mm 5 mps 747 mmHg 68%
15:00 +35°C° 1.7 mm 5 mps 746 mmHg 68%
16:00 +35°C° 0.6 mm 5 mps 746 mmHg 71%
17:00 +34°C° 0.6 mm 5 mps 746 mmHg 74%
18:00 +33°C° 0.6 mm 4 mps 746 mmHg 77%
19:00 +33°C° 0.2 mm 4 mps 747 mmHg 79%
20:00 +32°C° 0.2 mm 4 mps 747 mmHg 81%
21:00 +32°C° 0.2 mm 4 mps 748 mmHg 83%
22:00 +30°C° 0 mm 4 mps 748 mmHg 83%
23:00 +30°C° 0 mm 3 mps 748 mmHg 84%

10 August, Monday

Time Temperature Precipitation Wind Pressure Humidity
00:00 +30°C° 0 mm 3 mps 748 mmHg 85%
01:00 +30°C° 0 mm 3 mps 748 mmHg 85%
02:00 +30°C° 0 mm 3 mps 748 mmHg 85%
03:00 +30°C° 0 mm 2 mps 748 mmHg 85%
04:00 +30°C° 0 mm 2 mps 748 mmHg 86%
05:00 +30°C° 0 mm 2 mps 748 mmHg 86%
06:00 +30°C° 0 mm 2 mps 748 mmHg 86%
07:00 +31°C° 0.1 mm 3 mps 749 mmHg 80%
08:00 +33°C° 0.1 mm 3 mps 749 mmHg 74%
09:00 +34°C° 0.1 mm 3 mps 749 mmHg 67%
10:00 +35°C° 0.4 mm 3 mps 749 mmHg 65%
11:00 +36°C° 0.4 mm 3 mps 749 mmHg 63%
12:00 +36°C° 0.4 mm 3 mps 748 mmHg 61%
13:00 +36°C° 0.8 mm 3 mps 748 mmHg 60%
14:00 +37°C° 0.8 mm 4 mps 747 mmHg 60%
15:00 +37°C° 0.8 mm 4 mps 746 mmHg 60%
16:00 +36°C° 0.2 mm 4 mps 746 mmHg 63%
17:00 +35°C° 0.2 mm 4 mps 746 mmHg 66%
18:00 +34°C° 0.2 mm 3 mps 746 mmHg 70%
19:00 +34°C° 0 mm 4 mps 747 mmHg 73%
20:00 +33°C° 0 mm 4 mps 747 mmHg 75%
21:00 +32°C° 0 mm 4 mps 748 mmHg 78%
22:00 +31°C° 0 mm 3 mps 748 mmHg 80%
23:00 +31°C° 0 mm 3 mps 748 mmHg 82%

11 August, Tuesday

Time Temperature Precipitation Wind Pressure Humidity
00:00 +30°C° 0 mm 3 mps 748 mmHg 84%
01:00 +30°C° 0 mm 2 mps 747 mmHg 85%
02:00 +30°C° 0 mm 2 mps 747 mmHg 86%
03:00 +30°C° 0 mm 2 mps 747 mmHg 87%
04:00 +30°C° 0 mm 2 mps 747 mmHg 87%
05:00 +30°C° 0 mm 2 mps 747 mmHg 87%
06:00 +30°C° 0 mm 2 mps 747 mmHg 87%
07:00 +31°C° 0 mm 2 mps 747 mmHg 80%
08:00 +33°C° 0 mm 3 mps 748 mmHg 73%
09:00 +35°C° 0 mm 3 mps 748 mmHg 66%
10:00 +35°C° 0.4 mm 3 mps 748 mmHg 63%
11:00 +36°C° 0.4 mm 3 mps 747 mmHg 61%
12:00 +37°C° 0.4 mm 4 mps 747 mmHg 58%
13:00 +37°C° 1.3 mm 4 mps 747 mmHg 58%
14:00 +37°C° 1.3 mm 4 mps 746 mmHg 58%
15:00 +37°C° 1.3 mm 4 mps 746 mmHg 58%
16:00 +36°C° 0.9 mm 4 mps 746 mmHg 63%
17:00 +35°C° 0.9 mm 4 mps 746 mmHg 67%
18:00 +34°C° 0.9 mm 4 mps 746 mmHg 72%
19:00 +33°C° 0.1 mm 5 mps 747 mmHg 75%
20:00 +33°C° 0.1 mm 5 mps 747 mmHg 78%
21:00 +32°C° 0.1 mm 5 mps 748 mmHg 81%
22:00 +32°C° 0.3 mm 5 mps 748 mmHg 82%
23:00 +30°C° 0.3 mm 5 mps 748 mmHg 84%
Show more